User: anonymous   Login
Location: Unspecified
(0.0000°N, 0.0000°E)
Time: 04:48:14
(UTC+00:00)
Language:

AEHF 1 (USA 214) - Orbit

View from above orbital plane
View from above orbital plane
View from above satellite
View from above satellite

Ground track
Ground track

The orbit data is extracted from the following two-line orbital elements,

1 36868U 10039A   18263.31339923 0.00000000  00000-0  00000-0 0    00
2 36868   1.3118 115.9690 0003004  41.3978 318.6289  1.00270000    04
Epoch (UTC): 20 September 2018 07:31:17
Eccentricity: 0.0003004
inclination: 1.3118°
perigee height: 35774 km
apogee height: 35799 km
right ascension of ascending node: 115.9690°
argument of perigee: 41.3978°
revolutions per day: 1.00270000
mean anomaly at epoch: 318.6289°
orbit number at epoch: 0

The dashed part of the orbit path shows where the satellite is in the earth's shadow,  

DLR